This is the latest recevied weather packets stored in our database for station/object KD0MAC. If no packets are shown the sender has not sent any weather packets the latest 10 day(s).
| Time | Temp. | Humidity | Pressure | Rain* | Wind** | Luminosity | Snow |
|---|---|---|---|---|---|---|---|
| 1777929697 | 31.11° C | 19% | 1002.7 hPa | 0 mm | - | 188 W/m² | - |
| 1777929394 | 31.67° C | 19% | 1002.7 hPa | 0 mm | - | 352 W/m² | - |
| 1777929095 | 31.67° C | 17% | 1002.7 hPa | 0 mm | - | 401 W/m² | - |
| 1777928793 | 32.22° C | 18% | 1002.7 hPa | 0 mm | - | 434 W/m² | - |
| 1777928493 | 31.67° C | 18% | 1002.7 hPa | 0 mm | - | 486 W/m² | - |
| 1777928194 | 31.67° C | 20% | 1003 hPa | 0 mm | - | 490 W/m² | - |
| 1777927894 | 31.67° C | 18% | 1003 hPa | 0 mm | - | 400 W/m² | - |
| 1777927594 | 31.67° C | 18% | 1002.7 hPa | 0 mm | - | 515 W/m² | - |
| 1777927294 | 31.67° C | 19% | 1003 hPa | 0 mm | - | 429 W/m² | - |
| 1777926994 | 31.11° C | 18% | 1003 hPa | 0 mm | - | 430 W/m² | - |
| 1777926694 | 31.11° C | 17% | 1003 hPa | 0 mm | - | 389 W/m² | - |
| 1777926394 | 32.22° C | 17% | 1003 hPa | 0 mm | - | 360 W/m² | - |
| 1777926094 | 32.22° C | 17% | 1003.4 hPa | 0 mm | - | 431 W/m² | - |
| 1777925794 | 31.67° C | 18% | 1003.4 hPa | 0 mm | - | 447 W/m² | - |
| 1777925494 | 31.11° C | 18% | 1003.4 hPa | 0 mm | - | 462 W/m² | - |
| 1777925194 | 31.11° C | 18% | 1003.4 hPa | 0 mm | - | 275 W/m² | - |
| 1777924894 | 32.22° C | 18% | 1003.4 hPa | 0 mm | - | 318 W/m² | - |
| 1777924593 | 32.22° C | 17% | 1003.4 hPa | 0 mm | - | 392 W/m² | - |
| 1777924294 | 31.67° C | 18% | 1003.4 hPa | 0 mm | - | 396 W/m² | - |
| 1777923993 | 31.67° C | 19% | 1003.4 hPa | 0 mm | - | 521 W/m² | - |
| 1777923694 | 31.67° C | 18% | 1003.7 hPa | 0 mm | - | 362 W/m² | - |
| 1777923393 | 31.67° C | 18% | 1003.4 hPa | 0 mm | - | 360 W/m² | - |
| 1777923093 | 31.67° C | 19% | 1003.7 hPa | 0 mm | - | 388 W/m² | - |
| 1777922793 | 32.22° C | 17% | 1003.7 hPa | 0 mm | - | 356 W/m² | - |
| 1777922496 | 32.78° C | 17% | 1003.7 hPa | 0 mm | - | 417 W/m² | - |
* Rain latest hour (hover to see other rain measurements)
** Current wind speed in m/s (hover to see current wind gust speed)